Hatteras, NC

7:38 PM EDT on April 27, 2017 (GMT -0400)
Mitchell

Weather History for KHSE - August, 2011

Change the Weather History Date:

Monday, August 15, 2011

  Actual Average Record
Temperature  
Mean Temperature 79 °F 79 °F  
Max Temperature 86 °F 84 °F 91 °F (2005)
Min Temperature 72 °F 73 °F 61 °F (1983)
Degree Days  
Heating Degree Days 0 0  
Month to date heating degree days 0 0  
Since 1 June heating degree days 0 3  
Since 1 July heating degree days 0 0  
Cooling Degree Days 14 14  
Month to date cooling degree days 285 210  
Year to date cooling degree days 1634 1098  
Since 1 June cooling degree days 1291 955  
Growing Degree Days 30 (Base 50)    
Moisture  
Dew Point 69 °F    
Average Humidity 69    
Maximum Humidity 87    
Minimum Humidity 51    
Precipitation  
Precipitation 0.01 in 0.22 in 2.00 in (1992)
Month to date precipitation 1.00 3.12  
Year to date precipitation 25.69 33.38  
Snow  
Snow 0.00 in - - ()
Month to date snowfall 0.0  
Since 1 July snowfall 0.0  
Snow Depth 0.00 in    
Sea Level Pressure  
Sea Level Pressure 29.73 in    
Wind  
Wind Speed 7 mph (West)    
Max Wind Speed 17 mph    
Max Gust Speed 28 mph    
Visibility 10 miles    
Events Rain    
T = Trace of Precipitation, MM = Missing Value Source: NWS Daily Summary

Daily Weather History Graph

Daily Weather History Graph

Search for Another Location

Airport or City:

Trip Planner

Search our weather history database for the weather conditions in past years. The results will help you decide how hot, cold, wet, or windy it might be!

Date:

Astronomy

Aug. 15, 2011 Rise Set
Actual Time 6:21 AM EDT 7:51 PM EDT
Civil Twilight 5:54 AM EDT 8:18 PM EDT
Nautical Twilight 5:22 AM EDT 8:50 PM EDT
Astronomical Twilight 4:48 AM EDT 9:24 PM EDT
Moon 8:35 PM EDT (8/15) 8:06 AM EDT (8/15)
Length of Visible Light 14h 23m
Length of Day
13h 29m
Waning Gibbous, 97% of the Moon is Illuminated
Aug 15
Waning Gibbous
Aug 21
Last Quarter
Aug 28
New
Sep 4
First Quarter
Sep 12
Full

Hourly Weather History & Observations

Time (EDT) Temp. Heat Index Dew Point Humidity Pressure Visibility Wind Dir Wind Speed Gust Speed Precip Events Conditions
12:51 AM 75.9 °F - 72.0 °F 87% 29.73 in 6.0 mi SW 10.4 mph - 0.10 in Rain Light Rain
1:51 AM 77.0 °F - 72.0 °F 84% 29.73 in 10.0 mi WSW 9.2 mph - 0.02 in   Clear
2:51 AM 77.0 °F - 72.0 °F 84% 29.71 in 10.0 mi WSW 11.5 mph 16.1 mph 0.00 in   Scattered Clouds
3:08 AM 78.8 °F - 71.6 °F 78% 29.70 in 10.0 mi WSW 11.5 mph - N/A   Mostly Cloudy
3:31 AM 77.0 °F - 71.6 °F 83% 29.70 in 10.0 mi West 8.1 mph - N/A   Scattered Clouds
3:51 AM 77.0 °F - 72.0 °F 84% 29.70 in 10.0 mi West 8.1 mph - N/A   Mostly Cloudy
4:14 AM 75.2 °F - 69.8 °F 83% 29.70 in 10.0 mi NW 11.5 mph 23.0 mph N/A   Mostly Cloudy
4:31 AM 75.2 °F - 69.8 °F 83% 29.70 in 10.0 mi NW 8.1 mph 17.3 mph 0.00 in   Overcast
4:51 AM 73.9 °F - 69.1 °F 85% 29.67 in 10.0 mi North 3.5 mph - 0.00 in Rain Light Rain
5:51 AM 73.0 °F - 69.1 °F 87% 29.67 in 10.0 mi Calm Calm - 0.00 in   Clear
6:51 AM 75.0 °F - 70.0 °F 84% 29.70 in 10.0 mi Calm Calm - N/A   Mostly Cloudy
7:51 AM 77.0 °F - 70.0 °F 79% 29.72 in 10.0 mi WNW 3.5 mph - N/A   Mostly Cloudy
8:10 AM 77.0 °F - 69.8 °F 78% 29.72 in 10.0 mi WNW 6.9 mph - N/A   Scattered Clouds
8:51 AM 77.0 °F - 70.0 °F 79% 29.73 in 10.0 mi West 5.8 mph - N/A   Clear
10:51 AM 80.1 °F 83.6 °F 71.1 °F 74% 29.74 in 10.0 mi West 11.5 mph - N/A   Clear
11:51 AM 81.0 °F 84.4 °F 70.0 °F 69% 29.74 in 10.0 mi West 9.2 mph - N/A   Clear
12:51 PM 82.9 °F 85.8 °F 68.0 °F 60% 29.74 in 10.0 mi West 8.1 mph - N/A   Clear
1:51 PM 84.9 °F 87.6 °F 66.9 °F 55% 29.74 in 10.0 mi WSW 8.1 mph - N/A   Clear
2:51 PM 84.0 °F 86.3 °F 66.0 °F 55% 29.74 in 10.0 mi WSW 9.2 mph - N/A   Clear
3:51 PM 86.0 °F 88.8 °F 66.9 °F 53% 29.73 in 10.0 mi SW 8.1 mph - N/A   Mostly Cloudy
4:51 PM 84.0 °F 88.4 °F 70.0 °F 63% 29.73 in 10.0 mi SW 9.2 mph - N/A   Clear
5:51 PM 82.9 °F 85.0 °F 66.0 °F 56% 29.73 in 10.0 mi SW 10.4 mph - N/A   Clear
6:51 PM 82.0 °F 84.9 °F 68.0 °F 62% 29.73 in 10.0 mi WSW 11.5 mph 20.7 mph N/A   Clear
7:51 PM 82.0 °F 84.5 °F 66.9 °F 60% 29.75 in 10.0 mi WSW 11.5 mph - N/A   Clear
8:51 PM 80.1 °F 82.3 °F 66.9 °F 64% 29.76 in 10.0 mi West 6.9 mph - N/A   Scattered Clouds
9:51 PM 80.1 °F 82.1 °F 66.0 °F 62% 29.79 in 10.0 mi NW 4.6 mph - N/A   Mostly Cloudy
10:51 PM 79.0 °F - 69.1 °F 72% 29.81 in 10.0 mi NNW 3.5 mph - N/A   Mostly Cloudy
11:51 PM 79.0 °F - 66.9 °F 66% 29.81 in 10.0 mi NW 4.6 mph - N/A   Partly Cloudy